SQ9NFI-4 Weather Reports


time (UTC)temp
C
wind
direction
speed
KPH
gust
KPH
rain 1hr
cm
rain 24hr
cm
rain mn
cm
humidity
%
barometer
mb
20260508034243 10 358 0.0 1.6 0.13 0.00 1.60 97 1015.9
20260508033743 10 339 1.6 1.6 0.25 0.00 1.55 98 1015.9
20260508033243 10 336 3.2 3.2 0.25 0.00 1.55 98 1015.9
20260508032743 10 324 4.8 4.8 0.25 0.00 1.52 98 1015.9
20260508032243 10 342 1.6 1.6 0.38 0.00 1.47 98 1015.9
20260508031743 10 333 0.0 1.6 0.51 0.00 1.45 98 1015.9
20260508031243 10 335 3.2 3.2 0.51 0.00 1.40 98 1015.9
20260508030743 10 332 3.2 3.2 0.51 0.00 1.40 97 1015.9
20260508030243 10 334 0.0 0.0 0.64 0.00 1.32 98 1015.9
20260508025743 10 337 1.6 1.6 0.64 0.00 1.27 98 1015.2
20260508025243 10 344 1.6 1.6 0.64 0.00 1.24 97 1015.2
20260508024743 11 336 1.6 1.6 0.64 0.00 1.17 98 1015.2
20260508024243 11 332 1.6 1.6 0.64 0.00 1.14 98 1015.2
20260508023743 11 330 1.6 3.2 0.51 0.00 1.04 97 1015.2
20260508023243 11 332 3.2 3.2 0.51 0.00 1.02 98 1015.2
20260508022743 11 336 4.8 4.8 0.79 0.00 0.97 98 1015.2
20260508022243 11 314 6.4 8.0 1.04 0.00 0.94 98 1015.2
20260508021743 11 309 3.2 3.2 0.79 0.00 0.84 97 1015.2
20260508021243 11 54 6.4 9.7 0.64 0.00 0.76 97 1015.9
20260508020743 11 354 3.2 4.8 0.64 0.00 0.69 97 1015.9
20260508020243 11 10 3.2 4.8 0.51 0.00 0.64 97 1015.9
20260508015743 11 316 3.2 3.2 0.64 0.00 0.58 97 1015.9
20260508015243 11 335 8.0 9.7 0.79 0.00 0.56 97 1015.9
20260508014743 11 310 6.4 8.0 0.79 0.00 0.51 97 1015.9
20260508014243 11 321 3.2 4.8 0.79 0.00 0.43 97 1015.9
20260508013743 11 338 9.7 14.5 0.64 0.00 0.38 97 1015.2
20260508013243 11 333 9.7 9.7 0.38 0.00 0.28 97 1015.2
20260508012743 11 331 1.6 3.2 0.38 0.00 0.28 97 1015.2
20260508012243 11 342 8.0 9.7 0.25 0.00 0.23 97 1015.2
20260508011743 11 341 6.4 8.0 0.25 0.00 0.18 97 1015.2
20260508011243 11 339 3.2 4.8 0.25 0.00 0.18 98 1015.2
20260508010743 11 301 4.8 6.4 0.25 0.00 0.18 98 1015.2
20260508010243 11 335 9.7 11.3 0.38 0.00 0.13 98 1015.2
20260508005743 12 312 4.8 4.8 0.25 0.00 0.13 97 1015.2
20260508005243 12 325 1.6 3.2 0.13 0.00 0.08 98 1015.2
20260508004743 12 331 4.8 8.0 0.13 0.00 0.05 98 1015.2
20260508004243 12 338 4.8 8.0 0.13 0.00 0.05 98 1015.2
20260508003743 12 333 6.4 9.7 0.13 0.00 0.03 98 1015.2
20260508003243 12 333 6.4 11.3 0.25 0.00 0.03 98 1015.2
20260508002743 12 344 6.4 8.0 0.25 0.00 0.00 98 1015.2
20260508002243 12 339 3.2 3.2 0.13 0.00 0.00 98 1015.2
20260508001743 12 331 1.6 1.6 0.13 0.00 0.00 98 1015.2
20260508000243 12 329 1.6 3.2 0.00 0.00 0.00 98 1015.2
20260507235743 12 323 1.6 1.6 0.00 0.00 0.00 98 1015.2
20260507235243 12 321 0.0 0.0 0.00 0.00 0.00 98 1015.2
20260507234743 12 320 1.6 1.6 0.00 0.00 0.00 98 1015.2
20260507234243 12 325 0.0 0.0 0.00 0.00 0.00 98 1015.2
20260507233743 12 321 0.0 0.0 0.00 0.00 0.00 98 1015.2
20260507233243 12 319 1.6 1.6 0.00 0.00 0.00 98 1015.2
20260507232743 12 307 1.6 1.6 0.00 0.00 0.00 98 1015.2
20260507232243 12 321 0.0 0.0 0.00 0.00 0.00 98 1015.2
20260507231743 12 324 0.0 0.0 0.00 0.00 0.00 98 1015.2
20260507231243 12 321 1.6 3.2 0.00 0.00 0.00 98 1015.2
20260507230743 12 328 0.0 0.0 0.00 0.00 0.00 98 1015.2
20260507230243 12 332 0.0 0.0 0.00 0.00 0.00 98 1015.2
20260507225743 12 333 0.0 1.6 0.00 0.00 0.00 98 1015.2
20260507225243 12 332 0.0 0.0 0.00 0.00 0.00 98 1015.2
20260507224743 12 332 0.0 0.0 0.00 0.00 0.00 98 1015.2
20260507224243 12 332 0.0 0.0 0.00 0.00 0.00 98 1015.2
20260507223743 12 329 0.0 0.0 0.00 0.00 0.00 98 1015.2
20260507223243 12 320 0.0 0.0 0.00 0.00 0.00 98 1015.2
20260507222743 12 311 1.6 3.2 0.00 0.00 0.00 98 1015.2
20260507222242 12 332 0.0 0.0 0.00 0.00 0.00 98 1015.2
20260507221743 12 325 0.0 0.0 0.00 0.00 0.00 98 1015.2
20260507221243 12 324 0.0 0.0 0.00 0.00 0.00 98 1015.2
20260507220743 12 312 3.2 6.4 0.00 0.00 0.00 98 1015.2
20260507220242 12 319 1.6 3.2 0.00 0.00 0.00 97 1015.2
20260507215742 12 304 6.4 8.0 0.00 0.00 1.02 98 1015.2
20260507215242 12 306 4.8 6.4 0.00 0.00 1.02 98 1015.2
20260507214742 12 313 4.8 4.8 0.00 0.00 1.02 98 1014.9
20260507214243 12 322 0.0 0.0 0.00 0.00 1.02 98 1014.9
20260507213742 12 316 3.2 4.8 0.00 0.00 1.02 98 1014.9
20260507213243 12 324 0.0 1.6 0.00 0.00 1.02 98 1014.9
20260507212743 12 325 1.6 1.6 0.00 0.00 1.02 98 1014.9
20260507212243 12 334 0.0 0.0 0.00 0.00 1.02 97 1014.6
20260507211742 12 350 1.6 1.6 0.00 0.00 1.02 97 1014.6
20260507211242 12 349 1.6 3.2 0.00 0.00 1.02 97 1014.9
20260507210743 12 352 3.2 4.8 0.00 0.00 1.02 97 1014.9
20260507210243 12 345 0.0 3.2 0.00 0.00 1.02 97 1014.9
20260507205742 12 341 6.4 6.4 0.00 0.00 1.02 97 1014.6
20260507205243 12 341 3.2 4.8 0.00 0.00 1.02 97 1014.6
20260507204743 12 321 1.6 3.2 0.00 0.00 1.02 97 1014.6
20260507204243 12 324 0.0 1.6 0.00 0.00 1.02 97 1014.6
20260507203743 12 324 0.0 0.0 0.00 0.00 1.02 97 1014.2
20260507203243 12 324 0.0 0.0 0.00 0.00 1.02 96 1014.2
20260507202743 12 311 1.6 1.6 0.00 0.00 1.02 96 1014.2
20260507202243 12 330 0.0 0.0 0.00 0.00 1.02 96 1014.2
20260507201743 12 304 1.6 3.2 0.00 0.00 1.02 96 1014.2
20260507201243 12 319 1.6 1.6 0.00 0.00 1.02 96 1014.2
20260507200743 12 270 4.8 6.4 0.00 0.00 1.02 96 1014.2
20260507200243 12 348 1.6 3.2 0.00 0.00 1.02 96 1014.2
20260507195243 12 11 3.2 3.2 0.00 0.00 1.02 96 1014.2
20260507194742 12 353 3.2 4.8 0.13 0.00 1.02 96 1014.2
20260507194242 12 29 3.2 3.2 0.25 0.00 1.02 96 1014.2
20260507193742 12 352 3.2 4.8 0.51 0.00 1.02 96 1014.2
20260507193242 12 339 0.0 0.0 0.64 0.00 0.97 96 1014.2
20260507192743 13 359 0.0 1.6 0.25 0.00 0.91 96 1014.2
20260507192242 13 330 1.6 1.6 0.25 0.00 0.89 96 1014.6
20260507191742 13 337 0.0 0.0 0.38 0.00 0.86 96 1014.6
20260507191242 13 315 3.2 3.2 0.38 0.00 0.84 95 1014.2
20260507190742 13 295 0.0 1.6 0.13 0.00 0.79 95 1014.2
20260507190242 13 307 4.8 4.8 0.00 0.00 0.76 95 1014.2
20260507185742 13 305 3.2 4.8 0.00 0.00 0.76 95 1013.9
20260507185242 13 17 6.4 9.7 0.00 0.00 0.76 94 1013.9
20260507184742 13 13 3.2 4.8 0.00 0.00 0.76 93 1014.2
20260507184242 13 27 1.6 4.8 0.13 0.00 0.76 94 1014.2
20260507183742 13 60 4.8 14.5 0.25 0.00 0.76 94 1013.9
20260507183242 13 63 6.4 6.4 0.64 0.00 0.76 95 1013.9
20260507182742 13 348 3.2 4.8 0.94 0.00 0.76 95 1013.9
20260507182242 13 8 3.2 6.4 0.79 0.00 0.64 94 1013.9
20260507181742 13 344 3.2 4.8 1.60 0.00 0.58 94 1013.9
20260507181242 13 0 6.4 9.7 2.67 0.00 0.51 93 1013.9
20260507180742 13 349 3.2 6.4 1.75 0.00 0.28 92 1013.9
20260507180242 14 304 9.7 9.7 0.38 0.00 0.05 89 1013.9
20260507175742 14 358 1.6 4.8 0.00 0.00 0.00 87 1013.6
20260507175242 14 3 4.8 6.4 0.00 0.00 0.00 86 1013.6
20260507174742 14 337 3.2 4.8 0.00 0.00 0.00 87 1012.5
20260507174242 14 49 6.4 8.0 0.00 0.00 0.00 87 1012.5
20260507173742 14 359 3.2 3.2 0.00 0.00 0.00 86 1012.5
20260507173242 14 334 8.0 12.9 0.00 0.00 0.00 84 1012.5
20260507172742 14 339 0.0 0.0 0.00 0.00 0.00 86 1012.5
20260507172242 14 346 1.6 1.6 0.00 0.00 0.00 86 1012.2
20260507171742 14 65 3.2 3.2 0.00 0.00 0.00 86 1012.2
20260507171242 14 63 3.2 3.2 0.13 0.00 0.00 86 1012.2
20260507170742 14 22 1.6 1.6 0.13 0.00 0.00 84 1012.2
20260507170242 15 72 3.2 4.8 0.00 0.00 0.00 82 1012.2
20260507165742 15 40 6.4 9.7 0.00 0.00 0.00 79 1012.2
20260507165242 15 325 1.6 3.2 0.00 0.00 0.00 77 1012.2
20260507164742 15 350 1.6 1.6 0.00 0.00 0.00 76 1012.2
20260507164242 15 341 1.6 3.2 0.00 0.00 0.00 76 1012.2
20260507163742 15 6 9.7 16.1 0.00 0.00 0.00 76 1012.2
20260507163242 16 341 4.8 4.8 0.00 0.00 0.00 77 1012.2
20260507162742 16 0 4.8 4.8 0.00 0.00 0.00 78 1012.2
20260507162242 16 28 14.5 14.5 0.00 0.00 0.00 77 1011.9
20260507161742 16 340 6.4 6.4 0.00 0.00 0.00 76 1011.9
20260507161242 16 41 9.7 12.9 0.00 0.00 0.00 76 1012.2
20260507160742 16 19 6.4 8.0 0.00 0.00 0.00 75 1012.2
20260507160242 16 345 14.5 24.1 0.00 0.00 0.00 74 1012.2
20260507155742 17 315 20.9 30.6 0.00 0.00 0.00 71 1011.9
20260507155242 17 330 14.5 16.1 0.00 0.00 0.00 68 1011.9
20260507154742 17 308 1.6 1.6 0.00 0.00 0.00 69 1011.5
20260507154242 17 169 11.3 11.3 0.00 0.00 0.00 68 1011.5
20260507153742 17 210 9.7 12.9 0.00 0.00 0.00 68 1011.5
20260507153242 18 155 14.5 20.9 0.00 0.00 0.00 67 1011.5
20260507152742 18 204 14.5 14.5 0.00 0.00 0.00 66 1011.5
20260507152242 18 148 8.0 11.3 0.00 0.00 0.00 67 1011.5
20260507151742 18 127 9.7 12.9 0.00 0.00 0.00 67 1011.5
20260507151242 18 140 9.7 11.3 0.00 0.00 0.00 68 1011.5
20260507150742 18 180 16.1 22.5 0.00 0.00 0.00 68 1011.5
20260507150242 18 167 14.5 17.7 0.00 0.00 0.00 68 1011.5
20260507145742 18 134 8.0 9.7 0.00 0.00 0.00 69 1011.5
20260507145242 18 141 12.9 17.7 0.00 0.00 0.00 69 1011.5
20260507144742 18 164 19.3 20.9 0.00 0.00 0.00 69 1011.5
20260507144242 18 144 16.1 19.3 0.00 0.00 0.00 67 1011.5
20260507143742 19 134 24.1 24.1 0.00 0.00 0.00 65 1011.5
20260507143242 19 181 6.4 9.7 0.00 0.00 0.00 65 1011.5
20260507142742 19 144 6.4 11.3 0.00 0.00 0.00 64 1011.5
20260507142242 19 153 9.7 12.9 0.00 0.00 0.00 62 1011.5
20260507141742 20 141 9.7 9.7 0.00 0.00 0.00 60 1011.5
20260507141242 20 164 9.7 16.1 0.00 0.00 0.00 58 1011.5
20260507140742 20 167 12.9 12.9 0.00 0.00 0.00 55 1011.5
20260507140242 20 309 1.6 1.6 0.00 0.00 0.00 54 1011.5
20260507135742 20 294 1.6 1.6 0.00 0.00 0.00 55 1011.5
20260507135242 20 320 1.6 4.8 0.00 0.00 0.00 56 1011.5
20260507134742 20 318 3.2 4.8 0.00 0.00 0.00 55 1011.5
20260507134242 20 281 9.7 12.9 0.00 0.00 0.00 55 1011.5
20260507133742 21 233 9.7 12.9 0.00 0.00 0.00 54 1011.5
20260507133242 21 214 6.4 11.3 0.00 0.00 0.00 52 1011.5
20260507132742 21 272 8.0 9.7 0.00 0.00 0.00 53 1011.5
20260507132242 21 330 4.8 4.8 0.00 0.00 0.00 51 1011.5
20260507131742 21 322 9.7 12.9 0.00 0.00 0.00 51 1011.5
20260507131242 22 307 3.2 4.8 0.00 0.00 0.00 50 1011.5
20260507130742 22 337 8.0 11.3 0.00 0.00 0.00 49 1011.5
20260507130242 22 329 9.7 9.7 0.00 0.00 0.00 50 1011.5
20260507125742 22 311 0.0 1.6 0.00 0.00 0.00 51 1011.5
20260507125242 21 333 1.6 4.8 0.00 0.00 0.00 53 1011.5
20260507124742 21 324 6.4 6.4 0.00 0.00 0.00 52 1011.5
20260507124242 21 324 6.4 9.7 0.00 0.00 0.00 53 1011.5
20260507123742 20 320 9.7 16.1 0.00 0.00 0.00 53 1011.5
20260507123242 21 305 4.8 6.4 0.00 0.00 0.00 53 1011.5
20260507122742 21 271 6.4 8.0 0.00 0.00 0.00 51 1011.5
20260507122242 21 251 8.0 8.0 0.00 0.00 0.00 52 1011.9
20260507121742 21 318 3.2 6.4 0.00 0.00 0.00 53 1011.9
20260507121242 21 197 4.8 9.7 0.00 0.00 0.00 50 1011.5
20260507120742 21 285 11.3 19.3 0.00 0.00 0.00 52 1011.5
20260507120242 21 303 6.4 8.0 0.00 0.00 0.00 51 1011.5
20260507115742 21 331 3.2 14.5 0.00 0.00 0.00 50 1011.5
20260507115242 21 288 12.9 16.1 0.00 0.00 0.00 51 1011.5
20260507114742 21 265 6.4 9.7 0.00 0.00 0.00 52 1011.9
20260507114242 21 323 9.7 14.5 0.00 0.00 0.00 51 1011.9
20260507113742 21 300 4.8 8.0 0.00 0.00 0.00 54 1011.9
20260507113242 21 288 12.9 16.1 0.00 0.00 0.00 53 1011.9
20260507112742 21 330 11.3 14.5 0.00 0.00 0.00 53 1011.9
20260507112242 21 305 9.7 11.3 0.00 0.00 0.00 53 1011.9
20260507111742 20 202 6.4 8.0 0.00 0.00 0.00 55 1011.9
20260507111242 20 228 8.0 11.3 0.00 0.00 0.00 56 1011.9
20260507110742 20 329 14.5 16.1 0.00 0.00 0.00 56 1011.9
20260507110242 20 287 17.7 19.3 0.00 0.00 0.00 56 1011.9
20260507105742 20 317 3.2 8.0 0.00 0.00 0.00 57 1011.9
20260507105242 20 294 8.0 8.0 0.00 0.00 0.00 57 1011.9
20260507104742 20 281 11.3 11.3 0.00 0.00 0.00 59 1011.9
20260507104242 20 312 4.8 11.3 0.00 0.00 0.00 59 1011.9
20260507103905 20 298 6.4 12.9 0.00 0.00 0.00 58 1011.5
20260507103438 20 298 6.4 12.9 0.00 0.00 0.00 58 1011.5
20260507102938 20 298 9.7 14.5 0.00 0.00 0.00 59 1011.5
20260507102438 20 310 4.8 9.7 0.00 0.00 0.00 61 1011.5
20260507101938 20 242 11.3 16.1 0.00 0.00 0.00 60 1011.5
20260507101438 20 317 12.9 12.9 0.00 0.00 0.00 57 1011.5
20260507100938 20 289 20.9 20.9 0.00 0.00 0.00 57 1011.5
20260507100438 20 316 14.5 17.7 0.00 0.00 0.00 57 1011.5
20260507095938 20 278 3.2 9.7 0.00 0.00 0.00 62 1011.5
20260507095438 20 314 9.7 12.9 0.00 0.00 0.00 62 1011.5
20260507094938 20 278 11.3 19.3 0.00 0.00 0.00 60 1011.5
20260507094438 20 266 9.7 16.1 0.00 0.00 0.00 61 1011.5
20260507093938 20 331 9.7 16.1 0.00 0.00 0.00 63 1011.5
20260507090938 18 314 20.9 20.9 0.00 0.00 0.00 66 1011.2
20260507090438 18 294 9.7 20.9 0.00 0.00 0.00 66 1011.2
20260507085938 19 320 6.4 6.4 0.00 0.00 0.00 65 1011.2
20260507085438 19 315 17.7 17.7 0.00 0.00 0.00 63 1011.2
20260507084938 20 275 6.4 9.7 0.00 0.00 0.00 63 1011.2
20260507084438 20 301 20.9 30.6 0.00 0.00 0.00 62 1010.8
20260507083938 19 271 8.0 16.1 0.00 0.00 0.00 64 1010.8
20260507083438 19 271 6.4 9.7 0.00 0.00 0.00 65 1010.8
20260507082938 18 267 9.7 12.9 0.00 0.00 0.00 68 1010.8
20260507082438 18 279 14.5 20.9 0.00 0.00 0.00 67 1010.8
20260507081938 18 277 6.4 17.7 0.00 0.00 0.00 67 1010.8
20260507081438 18 333 19.3 24.1 0.00 0.00 0.00 67 1010.8
20260507080938 18 315 9.7 11.3 0.00 0.00 0.00 68 1010.5
20260507080438 18 280 14.5 20.9 0.00 0.00 0.00 68 1010.5
20260507075938 18 314 14.5 17.7 0.00 0.00 0.00 67 1010.5
20260507075438 18 281 12.9 19.3 0.00 0.00 0.00 68 1010.5
20260507074938 18 270 16.1 35.4 0.00 0.00 0.00 67 1010.5
20260507074438 18 279 6.4 9.7 0.00 0.00 0.00 67 1009.8
20260507073938 19 199 9.7 11.3 0.00 0.00 0.00 66 1009.8
20260507073438 18 251 11.3 16.1 0.00 0.00 0.00 67 1009.8
20260507072938 18 232 6.4 6.4 0.00 0.00 0.00 68 1009.8
20260507072438 18 270 9.7 16.1 0.00 0.00 0.00 68 1009.5
20260507071938 18 207 16.1 16.1 0.00 0.00 0.00 67 1009.5
20260507071438 18 296 11.3 11.3 0.00 0.00 0.00 68 1009.5
20260507070938 18 222 22.5 35.4 0.00 0.00 0.00 67 1009.5
20260507070438 18 273 9.7 16.1 0.00 0.00 0.00 68 1009.5
20260507065938 17 275 11.3 17.7 0.00 0.00 0.00 68 1009.5
20260507065438 17 235 20.9 20.9 0.00 0.00 0.00 68 1009.5
20260507064938 17 220 11.3 14.5 0.00 0.00 0.00 70 1009.5
20260507064438 17 265 11.3 11.3 0.00 0.00 0.00 69 1009.5
20260507063938 17 311 6.4 8.0 0.00 0.00 0.00 70 1009.5
20260507063438 17 271 1.6 9.7 0.00 0.00 0.00 71 1009.5
20260507062938 17 306 4.8 16.1 0.00 0.00 0.00 71 1009.5
20260507062438 17 178 11.3 11.3 0.00 0.00 0.00 70 1009.5
20260507061938 17 312 6.4 9.7 0.00 0.00 0.00 70 1009.5
20260507061438 17 253 4.8 4.8 0.00 0.00 0.00 71 1009.5
20260507060938 17 236 6.4 8.0 0.00 0.00 0.00 71 1009.5
20260507060438 17 318 8.0 12.9 0.00 0.00 0.00 70 1009.5
20260507055938 17 205 4.8 4.8 0.00 0.00 0.00 70 1009.1
20260507055438 17 262 6.4 9.7 0.00 0.00 0.00 69 1009.1
20260507054938 17 223 3.2 8.0 0.00 0.00 0.00 70 1009.1
20260507054438 17 327 1.6 4.8 0.00 0.00 0.00 70 1009.1
20260507053938 17 290 11.3 11.3 0.00 0.00 0.00 69 1009.1
20260507053438 16 296 6.4 6.4 0.00 0.00 0.00 70 1009.1
20260507052938 16 311 0.0 1.6 0.00 0.00 0.00 72 1009.1
20260507052438 16 270 6.4 12.9 0.00 0.00 0.00 73 1008.8
20260507051938 16 327 0.0 0.0 0.00 0.00 0.00 79 1008.8
20260507051438 16 327 0.0 0.0 0.00 0.00 0.00 79 1008.8
20260507050938 16 326 0.0 0.0 0.00 0.00 0.00 79 1008.8
20260507050438 16 326 0.0 0.0 0.00 0.00 0.00 77 1008.8
20260507045938 16 325 0.0 0.0 0.00 0.00 0.00 78 1008.8
20260507045438 16 325 0.0 0.0 0.00 0.00 0.00 77 1008.8
20260507044938 16 317 0.0 1.6 0.00 0.00 0.00 73 1008.8
20260507044438 16 325 0.0 0.0 0.00 0.00 0.00 74 1008.8
20260507043938 16 321 0.0 0.0 0.00 0.00 0.00 72 1008.8
20260507043438 16 316 0.0 1.6 0.00 0.00 0.00 71 1008.8
20260507042938 16 321 0.0 0.0 0.00 0.00 0.00 71 1008.8
20260507042438 16 319 0.0 0.0 0.00 0.00 0.00 71 1008.5
20260507041938 16 313 1.6 6.4 0.00 0.00 0.00 71 1008.5
20260507041438 16 230 6.4 6.4 0.00 0.00 0.00 71 1008.5
20260507040938 16 339 0.0 0.0 0.00 0.00 0.00 75 1008.5
20260507040443 15 327 1.6 1.6 0.00 0.00 0.00 76 1008.5
20260507035938 15 334 1.6 3.2 0.00 0.00 0.00 80 1008.5
20260507035438 15 329 1.6 1.6 0.00 0.00 0.00 79 1008.5
20260507034938 15 307 1.6 1.6 0.00 0.00 0.00 82 1008.5
20260507034438 15 338 1.6 1.6 0.00 0.00 0.00 80 1008.5